This is the latest recevied weather packets stored in our database for station/object KC5EZZ-2. If no packets are shown the sender has not sent any weather packets the latest 10 day(s).
| Time | Temp. | Humidity | Pressure | Rain* | Wind** | Luminosity | Snow |
|---|---|---|---|---|---|---|---|
| 1777851570 | 24.44° C | - | - | 0 mm | 4.02 m/s, 131° | - | - |
| 1777851270 | 24.44° C | - | - | 0 mm | 4.47 m/s, 129° | - | - |
| 1777850971 | 24.44° C | - | - | 0 mm | 4.92 m/s, 139° | - | - |
| 1777850668 | 25° C | - | - | 0 mm | 5.81 m/s, 141° | - | - |
| 1777850369 | 25° C | - | - | 0 mm | 4.47 m/s, 155° | - | - |
| 1777850069 | 25° C | - | - | 0 mm | 4.92 m/s, 167° | - | - |
| 1777849767 | 25° C | - | - | 0 mm | 3.58 m/s, 127° | - | - |
| 1777849467 | 25° C | - | - | 0 mm | 4.02 m/s, 128° | - | - |
| 1777849168 | 25° C | - | - | 0 mm | 4.92 m/s, 142° | - | - |
| 1777848865 | 25° C | - | - | 0 mm | 5.81 m/s, 146° | - | - |
| 1777848566 | 25.56° C | - | - | 0 mm | 4.02 m/s, 159° | - | - |
| 1777848266 | 25° C | - | - | 0 mm | 4.92 m/s, 127° | - | - |
| 1777847963 | 25° C | - | - | 0 mm | 5.81 m/s, 125° | - | - |
| 1777847664 | 25° C | - | - | 0 mm | 5.36 m/s, 128° | - | - |
| 1777847364 | 25° C | - | - | 0 mm | 3.58 m/s, 149° | - | - |
| 1777847062 | 24.44° C | - | - | 0 mm | 5.81 m/s, 150° | - | - |
| 1777846762 | 25° C | - | - | 0 mm | 4.02 m/s, 150° | - | - |
| 1777846463 | 25° C | - | - | 0 mm | 4.92 m/s, 129° | - | - |
| 1777846160 | 25.56° C | - | - | 0 mm | 4.47 m/s, 166° | - | - |
| 1777845860 | 25.56° C | - | - | 0 mm | 4.47 m/s, 136° | - | - |
| 1777845561 | 25.56° C | - | - | 0 mm | 4.02 m/s, 159° | - | - |
| 1777845258 | 25° C | - | - | 0 mm | 5.81 m/s, 129° | - | - |
| 1777844959 | 25.56° C | - | - | 0 mm | 4.92 m/s, 97° | - | - |
| 1777844659 | 25.56° C | - | - | 0 mm | 5.81 m/s, 142° | - | - |
| 1777844357 | 25.56° C | - | - | 0 mm | 5.81 m/s, 105° | - | - |
* Rain latest hour (hover to see other rain measurements)
** Current wind speed in m/s (hover to see current wind gust speed)